Wind_Gust
15 22 23 27 17 16 16 18 16 20 21 19 18 16 19 19 19 20 15 28 23 19 19 18 16 12 9 11 10 8 16 24 26 25 22 21 22 21 18 20 19 20 17 13 13 10 11 9 8 11 13 15 13 12 12 12 10 8 9 7 5 5 6 5 6 5 5 3 3 3 9 7 8 10 7 10 7 7 8 8 10 9 9 8 7 7
18 20 21 13 13 15 18 19 17 18 23 24 18 12 17 19 21 24 17 33 27 20 19 11 15 17 8 9 10 13 19 18 26 25 23 21 20 20 21 20 20 18 17 18 19 18 16 17 17 16 15 13 14 11 11 10 9 9 8 8 7 6 7 7 5 6 6 5 3 2 3 3 5 7 9 10 9 12 12 10 11 11 10 9 9 8
25 25 16 14 16 16 17 21 20 19 22 19 21 17 13 14 20 19 16 34 25 20 13 15 16 13 13 13 28 30 27 27 22 22 23 24 20 19 23 21 21 20 20 19 17 15 16 16 16 17 15 14 12 12 11 9 9 9 7 7 6 8 7 5 5 5 5 3 2 2 1 2 4 3 10 10 11 11 10 9 9 9 9 8 8 8
22 21 17 18 18 20 21 20 21 21 21 16 15 15 17 16 15 18 10 35 25 23 16 22 16 11 12 26 31 28 34 30 28 27 23 17 21 18 17 17 19 18 20 19 17 15 14 15 15 16 14 11 12 14 13 12 10 8 8 6 8 8 5 5 4 5 3 2 1 1 2 2 2 4 3 8 11 9 7 7 7 9 10 9 9 7
20 10 19 19 21 22 22 19 20 20 22 17 17 17 19 18 16 19 15 33 28 12 10 18 13 12 10 27 31 27 30 32 27 28 24 22 21 20 21 20 17 18 18 18 17 15 13 16 15 13 10 11 13 12 12 10 9 7 8 8 7 8 7 6 5 5 5 5 5 4 6 2 3 3 3 1 3 6 6 4 5 9 9 9 9 8
21 19 20 22 22 23 24 22 23 19 20 19 16 20 22 23 11 22 10 14 22 16 16 19 22 13 8 26 29 24 26 27 21 26 23 19 19 20 22 19 19 17 15 17 17 15 13 14 12 11 13 14 12 12 9 6 8 9 10 9 8 13 13 12 11 9 8 4 2 4 7 8 6 6 3 2 5 4 5 8 5 6 8 7 6 8
18 18 25 26 23 23 24 23 18 18 19 16 22 18 23 24 18 15 20 14 15 22 20 17 24 15 6 20 23 25 24 23 20 21 20 19 17 17 17 17 18 17 16 15 16 13 14 12 12 13 13 11 12 10 7 9 10 11 12 12 13 12 11 12 11 11 11 11 9 6 4 4 5 3 5 4 3 2 3 2 5 7 6 7 8 7
25 21 24 25 24 25 24 27 23 21 16 24 9 14 21 18 19 21 17 17 17 12 12 15 25 23 16 10 23 26 25 22 20 20 18 17 17 17 16 17 17 18 15 14 14 14 13 12 11 13 10 11 11 9 10 12 13 12 12 13 13 12 13 12 12 12 13 11 12 12 11 8 7 6 8 6 3 1 3 6 3 3 5 7 7 9
17 23 22 27 23 26 26 22 14 19 29 16 9 17 14 14 19 19 13 11 14 13 9 13 23 23 23 17 19 27 25 19 19 20 19 18 17 17 16 17 17 16 14 12 14 13 13 12 12 10 11 11 12 12 11 12 11 11 9 10 10 11 9 11 11 12 12 12 12 11 11 11 7 6 4 7 8 6 6 5 6 3 2 1 3 4
28 24 20 21 26 27 19 19 21 20 26 14 12 12 15 14 19 13 8 8 5 19 14 13 22 21 13 16 19 15 23 22 22 22 20 19 19 18 17 16 15 14 12 13 13 13 13 12 11 10 12 13 11 11 11 11 10 11 11 10 10 10 9 9 10 10 12 13 13 14 14 15 14 14 11 6 4 4 3 4 6 5 6 4 5 4
18 22 18 29 29 23 19 17 24 21 14 9 19 17 18 19 11 9 11 8 6 17 18 15 17 17 16 23 27 28 30 29 26 22 20 20 20 19 15 15 13 15 13 12 12 12 11 11 13 12 13 11 10 11 12 12 10 8 10 7 7 7 7 7 8 9 12 12 12 13 13 14 14 15 14 14 10 6 6 4 4 3 6 6 7 5
23 25 29 24 18 24 17 24 22 19 14 14 25 21 6 13 8 9 8 5 14 20 19 16 17 12 16 9 6 14 15 31 35 30 27 24 23 20 15 15 15 14 12 11 11 12 11 12 14 11 11 11 10 10 11 9 9 9 8 9 7 8 8 8 8 8 8 9 9 9 10 12 12 13 14 15 14 13 11 9 6 4 4 5 6 5
26 23 22 19 15 18 28 15 20 23 19 21 11 10 14 13 20 21 14 17 13 21 16 16 14 13 12 5 4 19 24 16 14 26 27 26 23 21 17 14 13 12 12 12 11 11 11 11 11 12 10 9 9 6 6 8 7 8 7 8 8 9 9 11 9 8 7 7 7 8 8 8 10 11 12 12 14 12 12 12 10 8 7 8 9 8
20 17 26 23 17 24 22 28 22 26 22 20 23 14 15 16 17 17 12 11 10 9 14 18 11 12 7 10 12 18 19 20 21 20 21 22 22 20 19 15 14 12 12 12 12 12 11 10 13 12 8 6 5 5 5 6 6 5 7 6 6 6 6 8 10 10 9 10 9 9 10 11 10 9 11 11 10 11 11 11 12 11 7 7 8 9
17 28 31 29 28 16 29 27 14 13 13 20 17 18 13 13 19 18 16 15 12 13 11 12 19 13 9 7 15 18 18 21 21 22 20 19 17 15 15 14 14 12 11 12 11 11 10 11 9 5 4 6 4 3 3 3 2 3 5 5 6 6 6 8 10 11 12 12 11 12 13 12 12 10 10 10 10 11 14 14 12 12 10 7 9 8
24 21 12 26 8 16 19 20 16 17 15 14 16 8 14 19 9 11 13 9 6 5 13 11 12 5 15 10 16 18 19 22 21 22 21 18 14 14 15 13 13 13 12 12 11 11 9 5 4 4 4 3 1 3 5 4 3 3 4 5 6 7 7 8 10 10 11 11 10 13 12 11 10 12 12 12 13 14 14 14 14 15 16 13 9 8
23 25 13 24 20 22 24 17 25 15 26 18 13 23 21 7 7 8 6 8 9 5 6 11 14 17 16 12 14 18 20 19 19 20 20 17 14 13 14 13 14 13 12 11 11 9 7 4 5 4 3 1 2 2 2 2 4 4 6 6 9 10 10 10 8 9 8 11 11 12 12 13 11 9 11 14 15 15 15 14 14 15 17 17 16 13
12 13 18 25 26 13 22 12 13 10 10 20 31 19 13 10 8 16 16 10 12 11 11 13 20 15 13 14 14 18 20 18 18 19 19 16 14 13 13 15 14 15 13 12 10 8 6 4 3 4 4 5 8 4 7 2 4 8 8 9 9 11 12 12 12 12 11 12 13 11 12 13 13 13 12 12 13 13 13 14 14 16 18 18 19 18
12 13 18 21 21 16 12 13 19 21 21 13 24 14 25 20 22 11 13 13 16 19 13 6 12 14 12 14 19 23 25 23 21 20 21 19 16 15 15 16 15 13 13 11 9 7 5 3 4 2 5 9 8 6 5 9 11 12 11 12 10 11 11 10 10 10 12 13 10 10 11 11 13 15 14 13 13 11 11 15 17 15 14 16 17 18
10 10 12 14 24 22 22 24 24 24 21 21 9 20 17 9 16 14 21 8 19 8 11 9 11 14 5 21 22 21 19 23 25 22 20 20 19 17 17 15 15 13 11 10 7 3 5 4 2 7 11 9 6 8 7 10 12 12 11 12 12 10 10 9 11 11 12 11 10 8 7 8 12 12 12 13 13 13 13 12 13 15 14 15 15 16
10 6 10 13 22 21 28 34 29 22 19 20 16 15 22 18 10 11 9 16 14 14 15 16 10 11 4 7 22 23 21 22 21 23 20 20 18 16 16 15 13 13 12 8 5 4 2 3 7 10 7 6 7 8 9 8 8 8 9 11 12 12 11 11 8 10 8 8 8 8 8 8 11 11 9 8 10 11 12 13 13 13 14 14 15 17
11 15 14 13 26 17 13 21 21 21 15 13 14 12 8 12 13 24 13 15 18 15 13 20 12 9 4 11 8 25 24 23 21 23 21 18 18 17 16 14 12 10 9 8 4 2 5 6 6 6 7 6 6 7 8 10 11 11 10 9 10 10 10 7 6 6 6 5 7 8 7 8 8 8 8 7 9 9 12 14 16 15 14 15 16 17
16 15 15 9 24 19 17 12 16 13 17 20 17 11 8 11 14 17 17 10 14 15 15 12 17 5 5 11 6 23 22 21 21 22 22 19 18 16 15 14 12 9 8 8 6 6 8 7 7 7 6 7 10 12 11 10 12 12 10 9 8 9 9 10 9 5 8 8 11 10 8 9 12 12 10 14 13 14 16 15 17 18 20 21 21 20
16 17 17 7 16 16 16 10 12 19 18 19 20 15 9 11 15 14 13 11 14 11 14 8 10 7 7 9 16 19 20 20 20 20 23 19 17 17 15 14 13 9 7 7 8 9 10 9 9 10 8 9 10 10 12 12 10 9 10 10 9 10 10 11 11 12 10 13 14 13 13 14 14 15 16 18 18 19 19 19 19 19 20 20 21 23
34 13 12 9 16 20 12 13 15 19 23 14 13 18 14 11 14 15 8 4 10 8 16 18 14 8 4 11 20 25 23 22 20 17 20 22 18 16 15 12 11 11 8 11 14 15 13 11 9 10 10 11 9 8 10 10 8 10 11 11 11 11 10 12 10 13 14 14 14 16 17 14 16 18 20 19 18 19 19 19 19 19 19 20 20 20
12 13 14 11 16 22 25 27 25 20 23 13 6 25 27 23 14 17 23 13 15 9 19 18 11 9 13 17 21 23 23 20 18 19 17 18 17 16 13 11 10 8 12 15 15 14 13 10 9 9 7 7 6 7 7 6 7 7 9 10 9 9 10 12 14 14 15 15 15 16 18 18 17 20 20 20 19 19 19 20 18 19 17 19 20 19
15 11 12 6 12 11 9 8 4 5 9 21 12 12 26 26 20 10 12 14 21 7 14 14 33 23 20 18 21 19 22 23 20 20 22 20 17 13 11 11 9 9 14 15 10 11 10 9 11 8 6 10 11 8 9 13 12 11 10 12 13 12 14 14 15 15 16 17 16 16 18 19 19 20 20 20 20 20 21 21 21 20 19 19 18 19
11 12 9 8 7 6 4 3 7 11 13 16 14 14 14 21 24 11 12 13 13 19 8 10 31 37 23 21 19 20 19 20 19 19 19 19 18 15 11 10 8 13 13 12 12 12 12 11 12 12 12 13 14 14 14 14 16 15 16 14 14 13 14 16 16 16 16 16 16 16 17 18 18 17 18 18 18 19 20 21 21 20 19 18 19 21
14 16 11 7 4 2 5 10 12 18 14 21 20 12 12 5 5 8 5 20 18 16 19 21 21 31 23 21 20 19 19 20 18 19 17 18 18 15 14 13 13 16 15 14 13 13 13 12 11 13 14 15 14 15 14 14 15 15 15 16 14 12 16 16 16 16 17 17 17 17 17 17 16 16 17 18 18 18 19 20 20 20 19 19 18 20
18 6 6 6 4 6 8 11 12 14 24 29 15 8 18 26 22 19 15 16 19 14 26 31 18 20 23 24 22 19 16 19 18 16 17 17 19 18 16 15 17 17 15 13 13 12 12 12 12 13 14 14 14 14 13 13 12 13 13 14 14 13 15 16 17 16 17 18 18 18 18 17 17 17 16 16 15 15 16 17 18 19 19 19 19 18
15 9 7 6 5 5 10 11 18 20 19 24 27 24 25 31 29 25 25 26 36 28 24 25 24 20 11 17 21 19 18 17 18 18 17 17 17 16 16 17 19 17 15 14 14 13 13 13 14 13 13 13 12 11 11 10 11 11 11 11 13 14 14 15 16 16 17 18 17 18 17 17 18 18 18 17 17 14 14 15 17 19 19 19 19 21
17 5 4 9 8 4 7 9 15 20 22 25 23 19 13 16 19 6 20 7 22 22 25 22 21 19 15 19 21 19 20 19 19 18 16 14 12 15 18 17 16 15 15 15 14 13 13 12 11 11 11 11 8 9 10 10 11 11 11 11 13 14 15 17 17 17 17 17 17 17 18 18 18 18 17 17 18 17 15 13 15 17 18 18 21 22
12 16 10 6 11 8 9 11 9 7 8 12 13 11 11 15 20 20 22 19 21 38 33 27 19 17 23 23 26 19 18 15 13 11 12 15 16 16 16 17 17 16 15 15 14 12 10 10 11 11 10 7 8 9 10 10 11 11 10 11 12 14 16 17 18 17 16 16 18 20 20 19 19 18 18 18 18 17 17 16 15 16 18 18 19 19
16 16 12 6 14 7 8 17 9 10 9 7 7 10 4 5 17 25 14 12 8 8 12 12 26 24 21 22 26 22 20 17 13 9 7 13 19 19 18 16 16 15 14 13 12 9 8 10 11 9 6 6 8 9 8 9 9 10 11 13 13 13 14 15 16 15 15 16 17 18 20 20 19 19 18 17 19 19 18 17 18 17 13 15 17 20
15 14 7 7 12 7 4 8 14 11 8 7 9 12 18 20 31 31 21 17 16 21 30 30 26 23 17 16 22 22 19 18 16 16 16 16 17 17 17 16 15 13 13 11 10 10 10 10 7 5 6 7 6 6 7 9 9 11 13 13 13 13 12 13 12 13 14 15 15 17 19 19 18 19 18 19 19 19 20 18 18 20 17 14 16 18
13 17 11 9 10 9 10 9 24 10 7 7 12 14 15 21 20 31 25 18 14 15 27 30 24 22 21 20 18 19 22 21 21 17 15 15 16 16 15 14 13 11 10 9 10 11 10 7 7 6 6 6 6 6 7 8 9 11 11 10 10 9 11 12 12 13 13 15 16 16 16 16 16 17 18 19 18 20 21 19 19 20 19 16 15 16
12 12 14 12 5 15 9 8 8 4 4 9 11 10 8 9 7 10 19 9 9 13 18 29 25 23 22 20 20 20 19 23 21 14 8 12 14 13 14 12 11 11 9 10 10 10 8 7 8 7 6 5 5 5 5 6 9 9 8 8 9 9 10 10 11 13 14 14 13 12 13 13 14 14 16 16 17 18 19 19 19 20 19 18 18 16
8 12 10 17 9 10 16 12 10 8 17 17 9 4 6 8 15 14 20 8 8 13 15 24 26 25 25 22 20 21 20 27 15 9 6 11 12 12 11 10 9 9 8 9 8 8 8 7 6 6 6 5 4 3 4 7 8 8 8 9 8 9 10 10 12 11 12 12 10 9 10 10 10 11 12 13 17 17 16 15 16 18 18 19 19 18
10 15 6 15 13 11 11 14 13 15 14 10 15 5 6 12 17 10 16 11 13 19 17 23 24 21 26 28 24 23 24 23 16 11 10 12 13 11 12 11 9 7 8 9 10 11 9 8 8 7 6 5 5 2 4 7 9 9 8 8 8 8 9 9 9 9 10 11 9 9 11 9 8 10 11 12 14 17 17 16 17 16 16 17 16 17
16 8 11 15 14 8 8 9 10 8 11 7 13 10 10 10 7 5 11 19 24 22 23 23 26 26 24 22 21 16 20 25 21 18 15 15 12 10 10 10 11 10 10 11 10 8 8 8 8 6 7 9 8 7 7 6 10 9 9 8 7 7 8 7 7 7 7 7 7 8 10 9 9 9 11 11 11 15 15 13 14 15 15 15 16 16
9 6 11 10 15 14 11 9 8 6 7 9 11 9 11 11 7 12 20 11 27 25 24 22 23 22 24 23 16 16 5 10 22 22 18 16 14 12 8 7 11 11 12 11 11 9 12 9 5 7 10 8 8 7 7 10 10 10 9 8 7 7 6 6 6 7 7 7 7 7 8 9 8 9 10 10 10 11 12 12 12 12 13 14 14 14
5 7 6 6 12 14 12 11 7 6 5 2 7 6 11 9 10 14 6 15 29 27 23 23 23 20 21 19 10 12 24 23 20 17 18 16 14 10 8 9 11 11 10 8 9 11 11 7 6 10 9 6 7 6 8 11 11 9 8 7 8 7 6 6 6 6 6 6 6 6 7 10 11 9 9 9 10 12 13 11 10 10 10 10 12 13
10 11 8 8 10 9 9 11 9 16 9 4 4 6 4 9 6 12 24 21 21 25 25 22 21 20 16 16 18 23 26 24 21 18 16 15 14 12 11 13 13 12 12 9 11 9 11 7 10 11 8 8 8 6 6 9 9 7 8 11 7 7 6 6 6 6 6 6 6 5 7 10 12 13 11 10 10 12 13 12 11 10 9 10 11 12
4 11 8 6 5 13 10 11 12 6 11 6 6 9 5 8 18 21 27 28 20 23 23 22 21 17 19 22 23 23 23 24 20 18 18 16 14 13 11 10 9 8 7 8 12 15 11 13 12 11 9 7 4 6 9 11 9 8 9 9 6 6 5 7 6 6 6 6 6 6 8 9 10 12 11 12 11 10 13 14 12 11 12 10 10 11
7 7 8 14 4 8 11 8 5 7 12 15 19 17 19 20 16 17 18 26 29 24 20 23 23 23 22 23 23 24 23 18 22 19 18 16 15 13 13 13 10 12 11 12 12 9 8 11 11 9 4 1 2 6 10 10 12 10 9 6 7 5 5 4 5 6 6 5 5 7 8 9 10 11 11 11 11 10 11 13 12 14 13 11 10 10
8 19 15 23 12 13 16 8 12 14 16 16 16 19 21 18 17 17 21 24 17 20 20 25 24 25 24 23 27 20 22 21 20 18 16 17 16 15 8 10 13 10 12 14 12 11 9 10 10 9 5 7 10 13 9 10 9 10 7 4 5 5 5 4 4 4 3 3 3 6 8 9 9 9 9 9 10 9 8 10 12 12 13 12 12 10
12 7 8 21 16 11 15 3 14 17 14 18 20 17 17 16 18 17 17 18 19 21 25 22 24 23 23 22 22 25 23 20 20 19 17 15 14 11 14 13 11 12 13 13 11 11 12 10 9 7 4 8 8 9 7 7 7 8 7 7 4 4 3 3 3 3 2 2 2 5 8 9 7 7 7 7 7 9 8 6 9 10 10 10 11 11
6 9 24 13 11 8 16 11 17 18 18 17 19 19 18 19 17 15 17 18 21 21 21 22 22 22 20 21 20 23 23 19 21 19 16 13 13 15 12 10 10 11 12 15 16 14 11 9 7 7 9 12 10 5 4 4 6 5 4 5 6 7 7 7 5 4 7 7 3 3 7 10 8 9 7 6 6 8 7 7 4 7 6 6 7 8
16 7 10 11 19 18 18 16 19 18 18 16 15 13 14 16 20 20 22 25 23 23 21 19 17 20 20 22 21 21 23 20 17 18 15 14 18 16 12 11 13 14 15 16 14 13 12 8 7 5 7 8 6 7 8 9 12 9 7 6 8 9 10 11 9 9 9 12 14 11 8 7 8 8 10 5 6 5 3 3 3 3 2 1 4 3
15 17 20 22 23 17 19 22 23 27 19 15 17 16 15 15 20 24 24 24 24 25 24 22 18 16 20 19 21 21 22 21 16 13 18 18 15 13 14 16 15 14 12 11 13 11 9 9 11 8 7 7 8 11 13 9 6 7 7 6 8 11 11 9 10 9 9 8 8 7 10 10 7 8 7 8 8 4 3 5 4 3 4 1 3 3
14 23 21 21 24 20 17 17 8 17 20 16 19 17 16 17 22 23 24 24 23 22 20 22 24 22 21 19 19 19 16 16 17 19 18 18 16 14 15 16 16 15 14 11 9 9 11 10 7 6 9 12 9 9 9 10 11 10 8 6 6 10 10 9 9 9 10 8 6 8 10 10 12 11 5 8 6 3 4 2 2 3 2 2 4 6
Wind_Speed
4 9 9 12 8 9 9 8 6 10 12 12 11 9 11 11 10 11 6 16 15 10 11 10 10 7 4 2 5 4 13 16 16 15 10 11 12 11 11 12 12 12 10 9 8 7 6 4 4 7 8 9 9 8 8 7 6 5 5 4 3 3 4 3 4 2 2 1 2 2 5 4 5 5 4 4 4 3 5 5 4 4 4 4 4 4
9 9 11 8 9 8 9 8 9 10 14 14 9 5 8 12 11 14 7 19 14 9 11 7 10 7 5 4 4 9 13 12 17 16 14 13 12 12 14 13 13 11 10 12 12 11 10 10 11 10 8 8 9 7 8 7 6 6 5 5 4 3 4 4 3 3 3 2 1 1 2 2 3 4 5 6 5 6 5 5 4 4 4 4 5 4
11 12 7 6 6 4 6 11 13 12 14 11 9 9 7 7 11 12 7 20 14 11 7 8 10 8 6 10 18 19 15 9 11 14 13 15 13 12 12 12 13 12 11 12 10 10 10 11 11 10 9 8 8 7 7 5 5 5 4 4 3 4 4 3 3 3 3 1 1 1 0 0 1 1 6 5 6 5 5 5 5 5 5 5 5 5
9 9 8 7 6 8 10 11 14 14 13 7 7 6 7 8 7 8 4 24 13 8 8 12 9 4 8 17 18 17 17 15 16 15 14 10 11 12 11 10 10 11 12 12 11 9 9 9 9 10 8 7 7 8 8 7 6 4 5 4 4 4 3 3 3 3 1 1 0 0 1 1 2 1 1 4 4 3 3 4 4 5 6 5 5 4
8 5 8 11 11 12 13 11 12 11 11 9 9 7 7 9 9 9 7 17 16 5 7 10 7 4 7 14 13 14 17 17 14 16 15 13 13 12 13 12 10 11 11 10 11 10 8 10 10 8 6 6 8 8 7 6 4 4 5 4 5 5 4 4 3 3 3 2 3 2 3 1 1 2 2 0 2 3 4 2 3 5 5 5 5 4
10 10 12 12 14 14 14 13 13 11 10 9 9 11 12 15 7 10 5 7 6 3 3 12 5 2 4 17 15 10 13 16 12 16 13 11 11 12 13 11 12 11 9 11 11 9 9 9 8 7 8 9 7 7 4 3 5 6 6 6 6 8 8 7 7 6 5 3 2 2 4 4 3 2 1 1 2 3 3 5 3 3 5 4 4 5
6 10 15 16 14 14 15 13 11 11 10 8 8 9 15 15 12 10 3 6 5 7 8 9 11 2 0 12 12 11 15 14 10 12 11 10 9 10 10 10 10 10 9 9 10 8 9 8 8 9 8 6 7 6 4 6 7 7 8 8 8 7 6 7 7 7 7 7 6 4 3 3 3 2 2 2 2 1 2 2 3 4 4 4 5 4
9 12 16 16 15 14 13 13 11 12 8 8 5 8 13 12 9 9 4 7 7 6 5 8 9 7 3 6 12 17 16 13 11 10 11 9 10 11 10 10 11 10 9 8 9 9 8 8 7 8 6 7 7 6 7 7 8 8 8 8 8 7 7 6 6 7 7 6 7 8 7 5 4 4 5 4 2 1 2 3 2 1 2 3 3 4
10 11 13 17 15 12 13 11 8 11 10 4 5 11 10 6 10 7 5 5 7 7 4 7 13 7 5 5 9 18 15 12 12 11 10 11 10 11 11 10 11 10 9 8 8 8 8 8 8 6 7 7 8 7 7 7 7 7 5 6 6 6 5 6 7 7 8 7 7 6 6 6 4 3 3 4 3 3 3 4 4 2 0 1 1 1
9 14 11 13 13 12 9 9 13 11 10 6 8 8 7 4 6 3 4 5 1 8 5 5 11 6 2 8 7 6 14 13 11 12 11 10 11 10 10 10 10 8 7 8 9 8 9 8 7 7 8 9 7 7 7 7 6 6 6 5 6 5 4 4 6 6 8 8 7 8 8 9 8 8 6 4 3 2 2 3 3 3 3 3 3 3
7 14 11 10 12 10 9 9 14 14 8 5 10 9 7 8 3 0 3 1 2 4 9 8 11 9 3 10 13 12 11 16 14 11 10 12 12 11 8 9 7 7 8 7 7 8 8 8 8 8 8 7 6 6 7 7 6 5 6 5 5 5 4 4 5 6 7 7 7 7 8 9 9 9 8 8 6 4 4 3 3 2 4 4 4 3
12 12 12 7 11 10 10 11 12 12 9 8 7 8 3 7 2 0 1 2 3 5 8 9 10 8 6 2 2 3 6 19 21 19 17 15 15 11 8 8 8 7 7 7 7 8 7 8 9 7 7 6 6 5 6 5 4 5 4 4 4 5 5 5 5 5 5 5 6 6 7 7 7 8 7 8 8 8 7 6 4 3 3 3 4 3
13 10 11 9 5 12 13 9 11 13 8 9 6 6 8 2 1 4 3 5 3 6 5 6 10 1 7 2 2 9 16 9 6 14 16 17 15 13 10 9 7 7 8 7 6 6 7 7 7 7 7 6 5 4 4 4 4 4 4 4 4 5 5 6 5 5 5 5 5 5 5 5 5 5 6 6 7 6 7 7 6 5 4 5 5 5
8 6 13 12 8 7 9 10 6 12 10 9 9 6 6 4 4 5 2 2 2 2 7 11 8 4 3 4 8 6 8 13 13 12 13 14 14 12 10 8 8 7 8 7 7 7 6 6 8 8 5 3 2 2 3 3 3 3 4 4 4 4 4 5 6 6 6 6 6 6 6 6 6 6 6 6 5 6 6 6 7 6 5 4 5 5
7 9 11 15 8 8 9 11 7 5 7 7 7 5 6 4 3 4 2 3 4 6 3 8 4 2 5 1 9 10 11 13 13 13 13 13 11 10 9 9 9 7 7 7 7 6 6 6 6 3 3 2 2 2 2 2 2 2 3 4 4 4 4 5 6 6 7 5 6 7 6 6 5 5 6 6 6 6 8 8 7 7 6 5 5 5
12 5 5 14 3 7 8 11 7 10 5 4 6 4 4 8 4 4 4 3 0 0 3 7 3 1 5 6 10 11 11 13 13 14 14 12 9 9 8 7 7 8 7 7 7 7 5 4 3 2 2 2 0 2 3 3 2 2 3 3 4 5 4 4 5 6 5 6 6 7 7 6 5 6 6 6 7 7 7 7 8 9 10 8 6 5
6 7 5 14 9 9 12 4 8 7 7 5 6 8 9 3 2 2 0 3 5 2 2 2 5 6 5 7 9 11 12 10 12 12 13 11 8 7 8 8 9 8 7 7 6 5 4 3 3 3 1 0 1 2 1 1 1 2 4 4 6 6 7 7 5 6 5 7 7 7 8 8 7 6 7 7 8 8 6 6 7 7 8 8 9 8
4 4 5 7 16 6 14 7 4 1 1 4 9 7 2 5 3 6 4 1 3 3 2 4 8 7 5 2 6 11 11 10 10 12 12 10 8 8 8 9 8 9 9 8 6 4 3 3 2 2 2 4 5 3 5 1 3 5 5 5 5 6 7 5 7 7 7 7 6 6 8 8 8 8 7 7 6 6 6 7 6 6 7 8 9 8
4 3 7 11 11 5 5 4 7 6 6 5 11 8 6 6 10 2 3 3 4 5 4 1 7 5 5 5 9 13 14 14 13 13 13 12 10 9 9 10 10 9 8 7 4 3 3 2 2 2 4 4 3 4 4 6 6 6 5 5 5 6 5 5 6 6 6 6 4 4 5 6 6 5 5 5 6 5 6 7 7 6 5 7 9 9
2 2 4 5 14 7 4 5 6 7 10 8 3 7 8 4 5 4 4 3 7 2 5 5 7 4 1 8 11 11 11 12 13 12 13 13 12 10 10 9 9 8 6 5 4 2 3 2 1 4 6 4 4 5 4 5 5 7 5 7 6 6 6 6 7 6 5 5 4 4 4 5 5 3 3 3 4 5 7 7 6 7 8 7 7 8
0 2 1 5 8 11 7 7 12 10 9 6 5 4 6 3 3 5 1 4 4 3 6 5 1 3 0 2 13 14 14 14 12 11 10 11 11 10 10 9 7 6 6 5 3 3 2 3 5 7 4 4 4 4 4 5 5 4 5 7 7 7 6 5 4 4 4 4 4 4 4 4 4 4 3 3 4 3 6 6 7 7 7 7 8 8
2 1 5 4 4 3 3 10 12 11 6 3 5 5 5 6 6 11 5 1 2 3 3 6 2 2 1 3 5 14 14 13 13 14 11 11 11 11 10 8 6 6 5 5 3 2 3 4 4 4 4 4 4 5 5 6 7 6 6 5 5 4 4 5 3 4 4 4 4 5 4 5 5 5 4 5 5 5 5 6 7 9 9 9 9 10
7 2 2 3 6 8 4 5 11 9 7 8 5 4 5 4 6 5 5 3 2 2 8 4 7 1 2 5 2 13 13 13 13 13 13 11 11 10 9 8 6 5 4 4 4 4 5 5 5 4 4 5 6 7 7 6 5 6 6 6 5 6 6 6 6 4 5 5 7 7 5 6 7 7 6 9 8 9 10 9 11 11 12 12 12 12
11 2 5 3 2 4 4 6 6 7 5 7 9 8 3 3 5 7 4 4 5 3 7 1 4 1 4 4 9 11 13 13 10 12 14 11 9 10 9 8 6 4 3 4 5 6 7 6 6 7 5 5 6 6 6 5 5 6 7 6 6 6 7 7 7 7 7 8 9 8 8 8 9 10 10 11 10 12 12 11 11 11 11 11 11 12
7 3 5 3 3 5 6 7 3 6 7 3 3 7 4 1 3 3 2 2 2 2 10 8 5 3 1 6 12 15 15 14 13 10 12 12 10 9 9 7 6 4 3 7 9 9 9 7 6 5 5 5 5 4 4 5 5 6 6 6 6 6 6 7 6 8 8 9 9 10 10 9 10 11 12 12 10 12 11 11 10 10 11 11 11 11
4 5 4 3 6 10 9 10 9 8 9 1 2 7 8 8 4 4 5 2 4 0 10 7 4 5 7 10 14 15 15 13 12 12 11 11 11 9 7 5 4 4 7 10 10 9 9 6 4 4 4 3 3 3 4 4 4 4 5 6 5 6 6 7 8 9 9 9 9 10 11 11 10 11 12 12 11 12 12 11 10 11 9 11 11 11
2 3 5 2 6 5 3 1 0 1 3 7 3 3 12 14 9 5 5 5 8 3 5 6 17 14 13 12 13 13 13 15 13 13 13 12 11 8 7 5 4 6 8 8 7 7 6 6 5 4 4 6 7 6 6 8 8 8 7 8 8 7 8 9 9 9 9 9 10 9 10 11 11 10 10 11 11 11 12 12 12 12 11 10 10 11
2 4 5 1 2 3 3 1 5 5 2 4 4 5 4 13 15 5 6 3 8 10 3 2 20 20 14 13 13 13 13 13 12 12 12 11 10 9 7 6 7 9 8 8 8 8 8 6 6 7 8 9 9 9 9 9 9 8 9 8 7 7 8 8 10 10 10 9 9 9 10 9 9 9 10 10 10 11 11 12 12 11 11 10 10 10
5 5 5 3 3 2 3 0 5 8 9 4 9 6 6 3 1 2 3 12 11 7 8 11 12 19 13 13 13 13 12 12 12 12 11 11 11 10 8 7 9 10 10 9 8 7 7 6 6 8 9 9 9 10 9 8 9 9 9 9 8 7 10 10 10 10 9 9 10 10 10 9 8 8 9 9 8 9 10 10 10 11 10 10 10 8
5 2 1 3 2 3 6 9 8 10 12 18 6 3 12 14 12 12 7 4 7 8 17 18 10 11 12 14 14 12 11 12 11 10 10 10 12 12 10 9 11 11 10 9 8 8 8 7 8 9 9 9 9 8 8 7 8 8 7 7 8 8 9 9 10 10 10 10 10 10 10 10 10 10 10 10 9 7 8 8 9 10 10 10 11 10
7 3 2 3 2 1 5 8 12 13 13 10 11 11 16 19 18 15 14 18 24 17 15 16 14 11 4 8 12 12 11 10 11 12 11 11 11 10 10 11 12 11 10 9 9 9 8 8 8 8 8 7 7 7 7 6 7 7 7 7 8 9 9 9 10 9 9 10 9 9 9 9 10 10 10 10 10 8 8 9 8 9 10 10 11 12
9 1 2 3 3 1 0 7 11 14 15 14 12 11 8 9 12 3 8 2 12 12 17 15 12 7 7 10 12 12 13 13 12 12 10 9 8 10 12 11 11 10 10 10 9 8 8 7 6 6 6 5 5 6 6 7 7 7 7 7 8 8 9 10 9 9 9 9 9 10 11 10 10 10 10 10 10 10 9 8 8 9 9 10 13 12
3 6 3 3 6 1 5 2 5 4 4 7 6 6 7 10 12 11 13 12 11 24 18 14 10 8 13 12 15 12 12 10 9 7 8 10 10 10 11 11 11 11 10 10 8 7 6 7 6 5 4 4 5 6 7 6 7 7 6 7 8 8 9 9 8 8 9 10 11 12 11 11 11 11 10 10 11 10 9 9 9 9 9 10 10 10
7 9 5 2 5 1 2 10 3 4 3 1 4 5 1 2 11 16 7 6 4 4 2 3 13 13 13 13 15 13 13 10 8 6 4 8 11 12 12 10 10 10 9 8 7 6 5 5 4 3 3 4 5 6 5 5 5 6 7 8 8 7 8 7 7 8 9 9 10 11 10 10 10 11 11 10 11 11 11 10 11 10 7 7 9 10
8 7 4 2 4 1 1 2 6 3 1 2 3 7 12 14 20 20 14 11 9 13 19 19 15 15 11 9 11 11 11 12 11 11 11 11 11 10 11 10 9 9 9 7 7 7 6 5 3 3 4 4 4 4 5 6 6 7 8 7 7 7 6 5 6 8 8 9 9 9 9 9 10 10 10 10 10 11 11 11 10 11 10 7 9 10
7 9 4 4 3 3 3 1 4 1 2 2 5 8 8 13 13 21 15 10 7 10 18 18 15 14 14 13 11 10 14 14 13 11 10 10 10 10 9 8 8 7 6 5 7 6 6 4 4 4 4 4 4 4 4 5 6 7 5 5 6 6 6 5 7 8 8 7 7 7 7 8 8 9 8 9 10 10 10 10 11 11 10 9 8 8
7 6 6 4 1 5 3 3 4 1 1 5 4 3 2 3 3 3 9 4 5 5 11 17 15 15 14 13 12 12 12 13 12 8 5 8 9 9 9 7 6 5 6 7 7 6 5 5 5 5 4 4 4 4 4 4 5 5 5 5 5 5 5 5 6 7 7 5 6 6 6 6 6 7 8 8 10 11 10 10 10 10 9 9 9 9
5 6 1 7 1 4 7 5 3 1 5 8 5 2 2 2 9 7 10 4 5 7 7 15 17 17 17 14 13 13 13 15 8 5 4 7 8 8 7 7 5 5 5 5 5 5 5 4 4 4 4 4 3 2 3 5 5 5 5 5 5 5 5 5 6 6 6 7 6 6 6 5 6 7 7 8 10 10 9 9 8 8 8 9 9 9
6 9 4 8 4 3 5 5 2 4 3 6 10 3 3 7 11 5 8 3 5 11 9 12 12 14 17 18 15 14 12 12 9 6 6 7 8 7 8 7 6 5 5 6 7 6 5 5 5 5 4 4 4 2 4 5 6 6 5 5 5 5 5 5 5 5 6 6 5 5 6 5 5 6 7 7 9 8 8 8 8 7 7 8 7 8
6 4 6 5 5 2 3 2 2 1 1 3 7 4 6 7 4 2 3 6 13 13 13 15 17 17 15 14 14 9 10 15 12 9 9 9 8 7 6 6 7 7 7 7 6 5 5 4 4 4 5 6 5 4 4 5 6 5 5 5 4 5 5 5 5 4 4 5 4 4 5 5 5 6 7 6 7 7 7 5 6 7 7 7 7 7
3 3 4 5 6 7 6 2 1 1 2 3 5 5 7 4 3 5 8 5 15 15 14 14 15 14 14 14 9 7 1 3 12 13 11 10 9 7 5 5 7 7 8 7 6 7 6 4 4 5 6 5 5 5 5 6 6 5 5 5 5 5 4 4 4 4 4 4 4 5 5 6 5 6 6 5 6 6 5 5 6 6 7 7 7 7
1 3 2 3 6 6 5 5 1 0 2 0 3 4 6 3 2 7 2 8 17 16 14 14 15 13 13 12 5 6 12 14 13 11 12 11 9 7 5 6 7 7 5 5 7 7 5 4 5 7 6 4 4 4 6 7 6 4 5 5 5 4 4 4 4 4 4 4 4 4 5 6 7 6 5 5 6 7 7 6 5 5 5 6 6 7
3 3 3 3 2 2 3 4 3 5 2 2 2 3 1 2 1 4 10 12 12 15 16 13 12 12 10 9 9 14 16 15 14 12 10 9 8 8 8 9 9 8 7 6 7 6 5 4 6 7 5 5 4 3 4 6 5 5 5 6 4 3 4 4 4 4 4 4 4 4 5 6 7 7 6 6 5 7 8 6 6 6 5 5 6 6
1 2 0 1 1 4 2 2 2 2 4 2 1 3 0 2 8 11 14 13 10 12 13 12 12 10 11 13 14 14 15 16 13 11 11 10 8 7 7 7 6 6 4 5 7 8 7 8 7 6 5 4 3 5 6 7 6 5 6 5 2 4 4 4 4 4 4 4 4 4 5 5 6 6 6 6 6 6 8 8 7 6 7 6 6 6
3 3 3 5 1 1 3 2 1 3 5 4 7 6 9 12 9 9 9 14 15 11 11 11 13 14 14 15 15 15 13 11 14 13 12 10 9 9 8 7 6 8 8 8 7 6 5 7 6 4 2 1 2 4 6 6 7 6 5 2 3 3 4 3 4 3 3 2 3 5 5 5 5 5 5 5 5 5 6 7 6 7 6 6 6 6
2 7 7 9 4 6 7 4 6 7 9 9 9 10 13 11 10 10 13 13 9 12 11 13 14 15 15 15 15 11 13 13 13 11 10 11 10 8 5 6 8 7 8 9 8 7 6 7 6 4 4 5 7 8 5 5 6 7 4 2 3 3 3 3 2 2 1 1 2 4 5 5 5 5 5 5 5 4 4 5 5 6 6 6 6 6
3 1 3 7 6 4 4 2 9 11 8 10 11 9 10 10 9 8 9 10 11 13 15 14 14 15 14 14 14 15 13 12 12 12 11 9 8 6 8 9 7 8 9 8 7 7 7 6 5 4 4 6 5 5 5 5 5 5 5 5 2 2 1 2 1 1 0 1 2 4 4 5 4 4 4 4 4 5 4 3 5 5 4 5 5 5
1 4 10 6 5 3 6 6 10 12 11 10 10 10 11 11 11 10 9 10 12 13 13 14 14 14 12 13 12 14 14 12 13 12 10 8 7 8 7 7 7 7 8 10 9 8 6 5 5 5 7 7 4 3 3 3 3 3 3 4 5 5 5 4 4 4 5 5 2 2 4 4 6 5 4 3 4 4 4 3 2 3 2 2 2 4
6 3 3 3 6 8 11 10 11 12 11 10 9 7 8 9 11 13 14 15 14 14 14 13 11 12 12 14 12 12 14 13 11 10 9 8 11 9 7 7 9 10 10 10 8 8 8 6 4 4 5 5 3 5 5 6 6 5 5 4 5 6 6 7 6 6 6 6 6 6 3 4 4 4 5 4 3 2 1 1 1 2 1 1 2 1
7 6 8 11 10 7 8 11 14 11 7 7 9 10 9 10 13 16 15 14 14 14 14 14 11 10 13 12 13 13 14 13 10 7 10 10 9 8 9 10 10 9 8 8 8 7 6 6 6 5 5 5 5 7 8 6 4 5 4 4 5 6 6 5 6 6 5 4 4 4 6 6 3 3 3 4 3 2 1 4 4 2 1 0 1 3
6 11 9 9 10 8 8 10 4 10 10 8 10 9 10 11 14 15 15 15 14 14 13 14 15 14 13 12 11 12 10 10 10 11 12 11 10 9 10 11 10 8 9 7 6 6 7 6 5 4 6 7 5 6 5 6 7 5 5 4 4 6 6 5 5 5 6 5 4 5 6 6 6 3 3 3 3 3 1 0 1 3 2 2 4 5
Wind_Direction
158 208 207 209 201 204 203 213 206 222 241 232 224 191 202 220 243 256 240 170 179 175 204 213 194 209 210 175 131 125 96 118 118 107 100 99 106 101 94 94 99 93 99 105 110 123 123 131 112 83 73 74 72 75 81 81 75 75 91 90 90 88 90 89 91 83 101 97 133 133 165 187 195 191 193 213 237 204 179 180 192 191 195 206 207 201
210 217 221 203 196 186 191 208 233 244 240 243 260 261 219 206 229 238 226 170 179 168 211 199 174 205 198 164 103 52 65 124 123 111 106 101 95 94 99 102 96 100 83 73 64 61 60 55 58 59 49 49 59 53 65 68 80 85 76 74 67 72 66 62 69 100 91 108 139 154 170 186 182 166 175 201 204 203 191 182 184 191 200 206 207 211
211 222 202 197 184 203 197 202 230 233 247 243 240 248 271 255 235 241 211 173 179 176 181 172 170 196 160 89 74 79 78 85 77 92 101 109 104 101 100 97 99 91 84 73 71 66 65 66 62 64 58 50 50 50 53 61 69 68 72 76 77 79 87 68 65 77 99 100 31 81 237 112 276 212 186 188 195 192 180 181 174 181 198 202 205 209
207 225 194 193 187 210 226 210 215 232 245 238 239 243 240 255 256 252 175 173 173 184 168 177 184 151 106 77 76 79 88 80 72 72 75 75 98 100 96 93 92 87 86 79 73 68 63 66 65 64 58 53 55 50 41 33 40 48 58 69 80 78 75 71 56 74 92 137 233 199 176 222 202 223 165 162 187 179 174 193 172 177 191 202 205 208
202 130 189 190 208 204 221 221 210 214 237 240 233 227 238 254 249 229 180 171 168 200 146 151 79 98 116 97 86 79 87 83 80 81 72 67 66 73 76 74 73 82 87 89 80 72 66 65 58 63 62 59 55 53 46 35 32 42 45 54 58 62 57 52 47 46 32 35 18 1 351 345 320 333 338 56 148 187 194 195 190 196 188 197 200 206
198 192 181 209 203 208 216 223 215 196 228 243 236 227 238 248 253 249 125 135 143 239 195 130 98 122 131 102 101 106 86 84 86 88 85 82 82 81 82 81 77 71 71 83 84 79 73 70 69 59 57 53 49 50 38 32 39 47 42 38 44 52 38 31 19 6 4 14 49 34 23 3 11 0 357 189 221 207 204 212 214 189 184 196 202 198
204 184 186 201 205 207 213 223 219 199 214 223 236 217 239 247 260 289 219 152 175 176 215 136 139 193 227 117 112 102 89 92 84 87 84 80 81 84 85 84 85 83 78 75 79 80 75 71 65 57 53 48 50 31 20 37 34 42 48 44 43 53 45 32 21 21 20 15 5 17 13 1 7 358 287 277 248 181 241 258 212 198 186 188 197 215
208 204 189 195 204 208 208 216 219 208 200 232 223 228 233 238 252 259 272 245 174 202 170 133 131 132 208 119 132 113 108 112 101 96 95 91 87 89 88 88 91 92 90 91 87 84 80 77 70 66 57 50 42 31 30 42 39 37 48 51 47 44 45 33 28 25 22 23 15 16 11 8 359 320 290 297 315 10 1 20 12 313 267 228 214 219
189 218 200 188 200 208 213 207 209 212 210 213 232 242 239 218 238 249 278 277 174 154 190 134 130 107 188 143 142 126 115 124 124 117 111 102 95 92 91 91 93 94 90 90 91 86 83 77 73 67 60 49 42 33 35 40 36 34 34 52 48 45 40 34 33 31 26 30 30 24 14 17 8 1 333 317 7 25 347 352 343 38 326 272 303 333
191 223 211 196 187 210 212 194 214 210 219 208 242 263 257 241 241 218 273 267 334 150 229 161 154 125 189 150 163 143 126 141 134 127 122 117 111 105 102 100 95 91 90 83 84 84 81 78 75 66 57 47 34 32 30 32 33 30 30 37 49 42 43 41 38 37 37 34 31 31 22 20 12 5 360 351 344 326 348 2 333 314 358 7 354 335
192 205 226 209 195 198 201 211 202 218 221 148 223 254 271 253 256 131 192 217 47 186 218 193 165 127 168 188 180 171 184 150 140 134 127 123 116 113 108 104 104 100 91 85 82 82 82 80 74 64 59 49 41 33 33 28 23 21 24 22 36 32 34 36 43 46 45 38 32 29 25 23 16 9 5 3 10 353 349 322 322 339 331 330 319 312
227 188 214 211 193 187 195 210 203 214 201 178 199 222 258 297 317 145 299 76 156 250 242 206 201 145 136 194 314 342 90 146 145 144 141 135 129 125 115 111 108 101 95 88 80 72 70 68 66 62 58 45 39 40 33 23 17 20 16 21 34 38 42 31 34 51 54 55 41 36 30 30 22 11 7 2 3 357 356 346 322 321 308 290 282 286
234 208 198 219 213 187 187 210 190 207 208 193 194 187 174 261 163 245 176 220 172 202 244 211 196 174 45 312 279 105 116 111 113 134 136 132 129 125 122 116 110 104 98 92 84 78 67 63 64 55 47 37 32 19 33 29 17 4 6 11 42 47 50 46 35 38 42 46 50 49 44 35 19 12 7 3 354 352 346 340 338 330 312 305 312 304
245 253 190 211 222 227 185 194 173 193 210 191 200 157 157 179 196 220 242 142 323 266 192 194 143 86 193 73 356 94 101 115 115 109 116 118 121 121 119 110 103 99 97 93 88 80 75 71 61 50 32 35 17 13 49 48 17 358 357 351 28 36 49 50 48 41 40 42 46 53 47 34 15 4 355 348 346 338 337 342 340 326 300 293 284 288
202 219 220 189 213 191 198 190 178 177 186 195 197 170 157 155 162 199 149 164 192 226 213 122 173 202 137 114 55 70 87 96 103 107 106 108 112 116 117 114 106 101 93 90 90 91 83 81 87 96 70 41 338 348 43 50 20 2 344 358 1 37 37 53 57 54 46 39 43 41 37 30 25 8 359 347 343 354 353 347 337 328 309 277 280 275
210 240 211 196 167 174 218 182 170 162 195 205 176 180 212 222 137 143 191 127 60 154 154 11 80 301 81 119 89 86 88 96 101 105 109 108 115 119 115 114 112 102 96 95 90 83 75 73 116 132 134 154 221 42 44 9 344 351 325 2 20 51 45 44 60 64 52 41 49 37 29 22 21 12 9 4 3 0 355 346 346 343 342 323 289 285
200 217 201 174 207 169 224 163 187 153 182 207 149 199 217 193 109 125 117 142 101 80 20 222 90 92 114 74 103 103 104 108 111 114 115 114 116 118 111 105 98 92 93 89 81 79 74 56 61 83 106 55 25 34 97 73 23 14 10 14 44 59 45 35 32 54 46 49 37 33 36 25 12 16 16 12 1 351 345 354 358 353 341 342 340 321
140 227 186 169 198 223 205 194 231 187 153 156 188 222 216 232 177 123 183 175 123 169 193 205 148 146 144 183 153 132 126 134 128 126 122 119 115 108 104 103 103 101 93 84 73 67 68 46 54 87 79 40 41 33 44 26 353 19 37 46 65 59 53 42 44 46 43 46 36 33 43 31 22 17 16 8 1 344 348 2 352 345 345 341 334 334
192 174 199 191 191 149 142 177 274 281 252 176 203 149 192 177 230 237 108 172 160 185 124 78 146 158 172 141 156 159 152 151 143 136 131 126 123 118 110 101 97 91 87 86 80 71 56 48 51 11 66 60 47 41 52 46 37 38 35 40 63 64 55 51 50 50 44 36 33 37 42 46 34 21 9 357 359 355 359 354 345 342 336 338 342 343
152 131 313 208 180 143 145 144 235 235 263 250 180 199 180 120 190 146 185 171 120 188 101 146 165 189 189 155 168 160 156 148 141 144 138 133 134 129 116 110 103 101 103 102 101 94 96 103 42 62 65 45 36 54 52 46 41 35 28 33 32 37 39 45 59 62 52 35 34 33 44 50 41 16 4 354 359 6 4 353 345 343 348 350 341 344
304 119 134 287 175 151 198 173 213 209 207 247 223 207 189 207 200 129 222 173 154 163 144 140 186 245 173 146 167 159 156 150 148 138 133 130 128 115 107 109 110 106 106 104 91 82 91 78 70 63 49 35 43 59 58 50 42 34 39 44 40 45 32 36 52 64 62 48 34 38 47 42 17 357 347 338 349 11 13 4 357 353 352 347 351 343
49 58 156 281 196 179 213 177 207 211 197 198 172 198 169 131 139 189 276 187 149 104 163 128 193 79 3 331 168 152 147 147 140 133 130 116 105 103 105 105 114 113 106 115 120 80 69 66 59 72 55 33 32 32 49 52 40 30 31 39 39 37 28 17 23 57 49 40 36 37 39 28 5 358 353 359 359 7 7 10 10 5 0 2 1 357
131 178 115 263 212 203 213 178 199 205 203 236 210 228 165 160 121 155 176 245 162 193 90 131 112 195 306 293 182 143 143 136 133 124 112 108 105 104 103 104 103 114 138 137 119 88 72 58 54 57 64 57 47 48 49 47 44 34 28 27 23 32 19 20 22 39 43 36 36 32 28 20 10 7 10 16 17 19 14 17 19 13 17 13 7 6
98 81 194 239 194 259 240 255 189 192 210 224 238 225 186 203 173 153 157 189 154 182 94 39 84 117 329 338 114 112 109 108 106 113 114 111 114 112 116 122 128 143 160 121 98 76 64 55 47 40 33 42 47 51 47 41 36 31 27 21 17 25 19 15 24 33 37 36 36 29 23 21 14 17 21 23 23 19 18 21 24 17 19 18 10 9
156 211 136 162 159 191 216 236 261 200 212 216 209 213 201 210 197 161 132 61 138 233 145 132 148 166 89 84 106 109 110 113 116 115 118 118 117 117 121 133 147 153 134 98 89 83 74 66 57 48 45 43 51 56 51 45 45 47 36 28 23 19 19 21 24 39 39 37 34 26 22 19 22 26 23 22 19 20 19 19 22 21 19 18 14 8
101 169 114 148 168 170 186 190 204 205 208 164 314 195 212 248 210 144 220 183 223 53 109 104 104 115 120 111 112 116 119 118 123 121 112 114 119 123 129 143 147 121 102 106 106 104 104 104 93 83 65 43 44 62 54 40 44 55 48 31 22 20 18 25 34 38 37 34 34 30 26 22 24 28 24 20 17 20 19 16 20 19 19 19 15 10
110 130 129 148 158 184 215 235 1 128 108 202 228 209 193 231 231 158 142 148 194 156 97 162 136 137 134 134 128 131 129 130 130 124 121 123 123 125 135 142 120 102 103 101 88 86 86 73 63 50 46 43 37 33 42 39 32 28 21 30 29 30 36 34 40 38 35 31 34 34 28 22 20 24 27 21 17 19 21 19 16 14 15 16 16 13
97 120 173 200 234 184 87 72 34 11 224 203 207 238 239 207 226 204 144 196 145 101 48 202 146 137 153 145 136 132 130 126 126 123 124 126 129 134 142 137 120 107 100 87 80 79 73 65 51 43 42 38 34 32 36 33 35 34 30 27 20 26 42 40 39 37 32 28 34 36 30 22 16 23 27 25 22 23 25 22 16 12 10 10 15 15
126 142 193 168 358 84 140 170 60 44 359 238 203 220 240 54 47 116 108 150 148 163 168 161 159 132 143 140 135 132 133 130 130 129 129 134 130 130 142 141 121 103 90 84 79 73 70 64 52 48 43 36 32 31 28 28 29 29 28 22 18 30 47 45 41 36 31 27 32 34 28 21 17 23 23 22 27 29 30 25 20 16 9 9 9 9
90 75 122 106 80 3 33 56 48 75 58 37 14 114 101 85 86 85 65 92 95 107 129 140 128 109 132 137 131 129 123 122 122 121 129 140 144 148 149 128 109 99 94 88 80 70 61 55 55 51 45 35 30 27 24 25 32 27 25 20 22 36 46 46 43 35 31 29 30 30 26 22 18 16 17 17 20 30 29 29 24 18 11 13 11 5
91 306 341 84 74 37 62 75 70 79 78 57 44 47 85 99 85 84 89 89 87 81 92 105 109 107 54 102 111 113 115 117 126 137 146 154 158 150 130 114 107 107 105 99 88 77 63 56 52 52 47 38 27 24 19 23 30 25 22 18 27 40 46 47 42 37 33 32 26 25 26 27 23 12 16 19 17 20 26 26 24 18 15 17 16 10
95 175 20 77 81 38 27 95 103 92 86 73 32 20 5 66 81 1 93 61 105 118 119 110 114 131 143 124 113 117 124 133 140 148 154 156 139 120 114 109 103 98 91 84 82 78 75 68 57 55 56 37 27 25 27 30 33 28 19 21 36 46 50 46 41 36 34 29 26 25 27 26 21 14 12 18 21 19 20 22 23 21 19 22 20 13
98 119 81 72 95 254 306 46 116 116 67 45 4 328 29 74 100 80 61 61 119 133 129 154 181 137 141 139 128 132 131 132 127 130 128 113 110 104 99 99 98 93 90 89 86 82 79 75 65 61 58 44 33 38 37 41 41 27 19 33 38 51 50 46 38 35 34 32 33 33 29 24 17 12 12 19 19 15 16 20 21 20 23 29 23 13
95 110 115 119 111 132 119 287 4 76 155 92 276 288 267 112 106 89 56 63 63 41 130 89 129 135 138 142 135 141 133 126 120 83 76 113 111 102 99 95 95 94 92 92 96 99 87 84 82 66 67 60 48 44 46 45 46 33 36 38 41 50 56 51 42 37 36 38 39 35 28 22 18 15 14 17 20 16 14 18 21 17 21 29 26 20
115 97 87 83 88 131 324 309 65 166 154 254 343 63 88 102 92 88 82 69 77 106 107 113 125 132 134 125 125 119 103 89 77 80 76 85 95 96 100 99 100 105 108 115 113 104 106 108 106 83 66 66 63 52 52 45 41 45 40 35 41 43 50 48 45 43 39 39 39 38 30 22 20 19 18 20 21 19 18 19 20 18 15 23 26 23
118 105 115 45 97 60 48 8 155 208 263 79 67 93 106 99 109 88 66 55 65 110 123 124 132 130 127 120 106 106 103 98 82 64 73 80 91 98 100 104 109 116 123 123 114 109 114 121 109 93 73 66 67 69 78 79 70 62 47 37 43 46 48 43 47 50 44 40 39 37 31 26 22 19 20 21 22 21 18 21 19 18 15 17 19 22
111 95 91 92 26 120 108 49 38 2 73 113 116 195 204 177 247 157 119 68 111 136 135 131 131 127 117 115 120 117 109 93 82 68 50 84 91 98 108 117 136 138 131 129 133 138 135 123 113 109 101 96 100 95 95 93 86 78 61 48 42 49 49 46 49 53 44 36 36 35 27 26 23 22 22 25 28 22 18 20 19 17 15 16 16 13
61 103 249 97 320 111 127 114 101 184 204 206 235 194 77 89 101 104 97 105 121 127 135 132 136 132 127 127 129 127 115 98 94 106 114 113 114 122 133 144 155 143 133 131 126 122 117 113 106 105 119 125 110 126 111 102 97 88 74 58 50 48 47 49 51 53 49 38 36 31 25 21 24 25 24 35 35 26 22 22 20 20 15 16 13 15
48 83 103 116 146 81 101 124 156 179 247 177 202 160 130 136 128 139 73 132 169 137 143 128 125 136 138 140 142 140 132 129 140 151 157 140 140 148 149 158 151 147 138 125 116 110 112 114 122 124 109 95 84 63 82 96 98 87 80 72 62 55 53 51 51 54 54 45 40 39 28 25 26 29 35 43 38 31 27 23 20 14 13 16 16 15
38 59 75 55 108 108 117 89 148 197 244 219 170 151 156 158 169 65 145 222 169 154 148 145 144 146 146 144 145 151 149 139 155 164 163 152 149 153 159 154 130 116 106 106 114 125 116 105 88 69 82 78 67 57 58 80 90 91 88 77 70 61 56 53 57 60 58 50 49 44 32 31 32 33 42 48 43 35 29 20 20 15 17 17 16 12
20 28 68 142 138 125 108 50 46 300 296 132 153 154 152 159 81 106 199 210 155 150 149 149 149 148 147 147 155 141 128 122 140 145 152 144 147 158 161 139 129 128 119 119 117 104 94 93 99 100 96 98 81 53 46 73 87 92 92 84 69 61 58 63 66 65 67 61 52 45 36 30 37 39 38 51 53 38 26 24 24 14 20 18 13 17
66 99 79 57 95 129 137 106 152 336 253 319 195 160 157 102 119 213 253 133 142 144 147 148 150 152 152 149 136 113 119 127 136 139 143 150 155 154 138 124 112 106 110 117 115 107 115 116 86 77 71 74 87 69 65 82 93 96 88 77 74 71 61 57 66 69 66 62 57 56 46 41 37 35 37 43 51 41 28 16 20 22 22 15 15 18
204 97 144 128 164 54 65 105 128 154 239 207 144 56 33 146 229 123 119 116 130 138 141 146 146 152 145 122 123 127 129 134 140 141 139 136 132 126 120 117 120 123 132 127 114 120 118 106 95 88 87 78 78 76 72 86 88 85 83 84 94 82 60 51 62 59 54 47 47 57 59 56 49 37 34 33 43 49 32 16 17 14 15 21 15 13
252 80 154 56 218 136 131 144 195 244 166 242 183 179 203 113 143 138 130 127 132 137 142 141 143 138 131 129 134 131 133 132 130 133 131 133 131 130 132 140 139 137 134 123 119 109 98 93 89 94 105 109 91 68 76 77 57 61 87 99 114 75 56 63 70 67 56 50 51 59 64 64 53 45 40 38 42 51 39 23 17 12 11 10 15 10
283 176 187 142 292 122 158 156 169 75 71 65 100 109 107 111 122 121 120 131 140 144 143 140 137 134 136 135 133 133 131 135 134 142 143 142 144 149 157 156 142 130 122 113 108 107 107 108 108 106 85 62 64 68 74 73 71 62 80 113 90 69 70 77 84 91 90 81 75 80 83 76 66 55 46 42 49 57 49 33 21 19 6 9 6 6
58 113 105 88 73 89 53 76 113 85 85 76 80 105 113 109 106 121 128 131 134 135 136 133 134 133 136 137 131 135 136 140 138 137 136 146 156 152 138 134 135 131 124 113 108 105 103 101 100 94 72 56 86 92 87 84 83 73 70 74 80 82 82 87 86 96 127 107 88 94 97 93 77 62 53 50 48 57 72 62 34 30 7 13 8 2
184 216 55 102 179 88 85 349 95 103 101 94 94 85 91 104 113 116 113 110 115 114 118 125 129 134 137 139 138 138 141 143 139 144 151 152 143 142 138 130 131 131 128 127 126 110 93 97 101 92 68 73 85 110 120 116 114 119 112 97 96 79 59 48 77 86 68 102 83 97 105 111 103 81 61 52 49 54 57 63 61 40 25 17 9 3
63 101 87 98 92 72 132 107 96 94 96 101 105 110 109 110 110 105 105 105 107 112 119 127 130 131 136 135 142 140 139 145 147 151 153 148 146 132 120 118 110 99 108 115 110 103 97 91 96 92 90 83 65 65 81 95 103 94 78 73 64 47 44 30 18 22 24 30 12 57 109 124 119 111 87 63 68 59 36 33 66 83 66 19 357 21
133 126 100 156 102 98 97 107 106 92 88 95 96 92 110 121 119 114 113 115 117 120 125 127 134 135 136 138 142 140 139 148 156 155 143 127 120 121 115 101 98 99 98 97 98 103 114 119 108 98 92 101 73 39 50 90 75 68 78 82 71 49 41 33 29 31 36 49 46 37 69 128 135 139 131 105 65 40 41 87 110 145 155 188 168 173
69 83 120 109 115 149 158 154 135 130 144 126 119 121 120 119 118 119 122 124 128 130 133 133 131 130 135 143 143 149 149 152 154 144 131 123 120 117 114 108 103 103 104 109 117 127 124 118 121 117 107 97 71 59 55 50 55 46 44 72 88 73 57 42 32 28 25 21 34 27 27 52 115 170 142 140 149 113 20 337 315 297 180 211 252 212
122 154 145 145 156 174 155 142 98 102 110 121 123 122 123 120 125 129 132 135 138 142 145 141 136 136 142 146 156 153 150 147 141 127 116 114 118 122 119 115 115 117 124 129 124 122 123 141 148 140 119 108 91 85 78 67 54 36 26 42 71 91 82 58 43 29 16 12 11 30 45 36 35 77 143 179 175 150 151 291 300 294 292 280 287 297